This demonstration page uses our WeatherBlox Daily Observations layout. Learn more.

Left ArrowRight Arrow

41.55636, -103.73856

Hourly Observations for November 30, 2021

Temp ( °F °C ) Dew Point ( °F °C ) Humidity (%) Winds ( mph kmh ) Pressure ( in mb ) Visibility ( mi km ) Precip ( " mm )
12:58 am 00:58 Mostly Cloudy 45 7 23 -5 42 42 NW 13 20 30.07 1018 10 16 0.00 0.00
1:58 am 01:58 Mostly Cloudy 40 4.4 24 -4.2 54 54 N 12 19 30.12 1020 10 16 0.00 0.00
2:58 am 02:58 Mostly Cloudy 39 3.7 26 -3.3 61 61 NNW 8 13 30.19 1022 10 16 0.00 0.00
3:58 am 03:58 Mostly Cloudy 39 3.7 27 -2.9 62 62 N 7 11 30.18 1022 10 16 0.00 0.00
4:58 am 04:58 Clear 33 0.7 26 -3.5 74 74 NW 9 15 30.29 1026 10 16 0.00 0.00
5:58 am 05:58 Clear 33 0.6 27 -2.6 79 79 W 3 6 30.32 1027 10 16 0.00 0.00
6:58 am 06:58 Clear 31 -0.8 26 -3.3 83 83 SSW 8 13 30.32 1027 10 16 0.00 0.00
7:58 am 07:58 Sunny 33 0.6 29 -1.9 84 84 SSW 7 11 30.32 1027 10 16 0.00 0.00
8:58 am 08:58 Sunny 39 4.1 31 -0.5 72 72 W 5 7 30.30 1026 10 16 0.00 0.00
9:58 am 09:58 Sunny 46 8 33 0.8 61 61 SSW 12 19 30.26 1025 10 16 0.00 0.00
10:58 am 10:58 Sunny 49 9.6 31 -0.3 50 50 SW 15 24 30.17 1022 10 16 0.00 0.00
11:58 am 11:58 Sunny 51 10.8 31 -0.8 45 45 SSW 23 37 30.07 1018 10 16 0.00 0.00
12:58 pm 12:58 Sunny 55 12.5 27 -2.6 35 35 SSW 17 28 30.01 1016 10 16 0.00 0.00
1:58 pm 13:58 Sunny 56 13.1 25 -4 30 30 SW 21 33 30.01 1016 10 16 0.00 0.00
2:58 pm 14:58 Sunny 54 12 26 -3.2 35 35 SW 21 33 30.02 1017 10 16 0.00 0.00
3:58 pm 15:58 Sunny 51 10.5 26 -3.2 38 38 W 10 17 30.03 1017 10 16 0.00 0.00
5:58 pm 17:58 Mostly Cloudy 52 11.3 17 -8.6 24 24 WNW 23 37 30.04 1017 10 16 0.00 0.00
6:58 pm 18:58 Mostly Clear 51 10.5 17 -8.4 26 26 NW 23 37 30.08 1019 10 16 0.00 0.00
7:58 pm 19:58 Clear 48 9.1 18 -7.9 30 30 NW 20 31 30.10 1019 10 16 0.00 0.00
8:58 pm 20:58 Clear 45 7.3 18 -7.7 34 34 NW 16 26 30.10 1019 10 16 0.00 0.00
9:58 pm 21:58 Clear 44 6.6 18 -7.8 35 35 NW 15 24 30.07 1018 10 16 0.00 0.00
10:58 pm 22:58 Clear 43 5.9 17 -8.2 36 36 NW 15 24 30.08 1019 10 16 0.00 0.00
11:58 pm 23:58 Clear 45 7 16 -8.8 32 32 WNW 9 15 30.06 1018 10 16 0.00 0.00

Powered by AerisWeather